Wind_Speed
51 51 50 48 46 44 43 41 40 38 35 32 30 28 28 28 28 30 32 33 32 29 27 26 26 28 30 32 34 35 36 37 36 36 35 34 34 33 31 30 30 30 29
56 56 56 55 52 50 48 45 43 41 38 34 32 31 31 30 30 31 32 33 32 30 28 27 26 26 28 30 32 33 34 34 35 35 35 34 32 30 29 27 28 28 27
61 62 61 61 59 56 54 52 48 44 40 37 35 33 33 33 33 33 34 33 33 31 29 27 26 24 25 26 28 28 29 31 32 32 32 32 31 29 28 27 26 26 27
66 67 67 67 67 64 62 59 54 48 43 40 38 37 37 36 36 35 35 35 33 30 28 27 24 22 21 21 23 23 24 25 26 28 29 30 29 27 26 26 26 25 23
74 76 76 76 75 71 66 61 58 53 48 44 42 41 41 40 39 37 36 35 33 30 27 25 22 19 18 18 19 20 23 25 26 28 29 29 29 27 25 25 23 20 18
78 79 78 75 74 73 69 65 62 58 54 50 47 46 44 43 42 40 37 36 33 30 26 23 20 19 17 18 19 20 23 27 29 31 32 30 29 25 24 22 20 18 16
86 87 87 86 84 83 81 78 74 68 62 57 54 51 49 46 44 41 37 35 33 30 26 23 20 19 18 18 19 21 23 25 29 32 32 29 26 23 21 19 18 17 16
84 87 89 90 89 86 84 82 78 73 67 62 56 52 49 47 44 40 38 36 33 30 27 24 21 20 19 19 20 21 23 25 27 29 28 24 21 19 18 18 17 16 15
55 59 62 66 69 69 69 70 69 67 65 62 58 53 49 47 44 40 39 37 34 31 29 25 23 21 20 20 20 21 22 23 24 23 21 20 19 18 17 16 15 14 13
41 42 42 42 43 44 47 51 54 57 58 56 54 51 48 45 43 41 39 38 35 32 30 27 24 22 21 20 20 21 21 21 21 20 19 18 18 17 16 14 13 12 11
44 43 41 38 36 34 34 36 41 46 50 52 52 50 48 45 44 43 41 38 36 33 31 29 25 23 21 21 21 22 22 21 21 20 19 19 18 16 15 13 11 10 10
48 46 43 39 34 30 28 29 31 35 41 47 51 53 52 49 46 45 42 38 36 34 31 28 25 23 22 22 23 23 23 23 22 21 20 18 17 16 14 13 11 10 9
50 48 45 42 37 32 27 26 27 28 31 36 45 53 56 52 49 48 45 40 37 34 31 28 24 22 22 24 24 24 24 23 22 21 19 18 16 15 14 13 12 11 10
51 48 45 42 39 35 30 26 24 24 25 28 33 45 55 53 49 47 46 42 36 32 30 27 24 22 22 24 25 25 24 24 22 20 19 17 16 14 13 13 12 12 12
48 46 45 43 40 37 32 28 25 24 24 26 29 37 47 47 45 43 42 39 34 30 28 26 24 22 22 23 22 22 22 22 21 19 17 16 15 14 14 13 13 14 14
44 41 40 41 40 38 34 30 27 26 26 27 30 33 38 40 39 39 38 37 33 30 28 27 25 24 23 23 22 21 21 20 19 18 17 16 15 15 15 15 15 16 17
37 33 32 35 36 36 33 31 29 28 29 30 32 34 34 35 35 37 36 35 32 29 28 28 27 26 25 24 22 21 20 20 19 18 18 17 17 16 16 17 18 19 20
28 25 25 28 31 32 31 30 29 29 30 33 35 36 35 34 35 37 37 36 32 30 30 30 29 28 27 25 23 22 21 20 20 19 19 18 18 17 18 19 20 21 22
19 16 17 21 25 26 27 27 28 29 30 33 36 38 38 38 38 39 39 36 32 31 31 31 29 28 27 25 24 23 21 20 20 20 19 18 18 19 20 21 22 24 24
7 8 13 18 21 22 23 24 24 25 28 31 35 39 40 42 41 41 39 35 34 34 33 31 29 27 26 25 23 21 20 20 20 20 19 19 19 19 20 22 24 25 26
3 9 13 17 19 19 19 19 21 22 25 30 35 40 42 42 40 38 35 33 33 33 32 30 28 26 25 23 22 20 19 19 19 19 19 19 19 20 21 22 24 25 25
9 13 16 17 17 17 17 18 20 23 27 33 39 41 42 40 38 36 33 33 32 32 30 29 27 26 25 23 22 20 19 18 18 18 18 18 18 19 20 21 21 22 22
16 18 18 19 20 21 22 24 26 29 34 39 42 42 41 40 37 35 34 33 31 30 28 26 25 24 23 22 20 19 18 17 17 17 17 17 17 18 18 18 19 20 21
22 23 25 26 27 28 30 31 33 36 39 41 41 40 38 37 36 34 33 31 29 27 26 24 23 22 21 20 18 18 17 16 15 15 16 16 16 16 16 17 18 19 20
29 30 32 33 35 35 35 36 37 39 40 40 39 37 35 34 33 32 30 28 27 25 23 21 20 19 18 17 16 15 15 15 15 15 15 15 15 15 16 17 18 18 19
35 36 37 37 36 35 35 37 38 38 37 35 34 33 32 32 30 29 27 25 23 21 19 18 17 16 15 14 14 14 13 13 14 14 14 14 15 16 16 17 18 18 19
Wind_Direction
278 278 278 278 278 278 279 280 279 280 280 282 285 289 292 298 306 313 319 321 318 313 306 296 283 272 263 258 256 255 255 256 256 255 254 251 249 249 247 246 244 246 250
276 276 277 278 278 278 278 279 279 278 277 278 281 285 288 293 300 308 313 316 315 313 307 300 290 276 265 258 254 254 254 253 252 251 249 245 243 241 239 241 243 247 252
274 274 274 275 275 276 276 276 276 276 275 275 278 282 285 289 295 302 307 310 310 309 306 302 295 282 268 258 253 251 250 249 247 244 242 240 237 234 234 239 244 249 255
275 273 272 272 272 272 273 272 270 269 270 272 275 279 282 286 291 297 301 303 303 303 302 300 296 286 271 258 251 247 246 243 239 237 235 235 229 229 233 243 247 250 252
271 268 266 265 264 264 264 263 263 263 265 267 271 276 279 282 287 292 295 295 296 296 297 297 293 285 272 261 254 249 247 241 235 233 232 233 229 229 235 242 245 244 245
264 263 263 262 260 261 260 262 263 264 267 268 271 274 276 279 282 286 287 287 287 287 289 290 288 280 269 261 252 248 248 240 233 230 229 228 229 230 233 235 236 235 236
269 268 268 267 267 268 269 269 270 270 271 270 270 270 272 274 276 278 278 277 277 277 278 280 278 276 268 263 256 252 249 243 236 230 225 225 226 225 225 227 231 234 236
276 274 273 272 271 271 271 272 271 271 269 268 266 265 265 267 268 269 269 268 267 267 268 269 269 266 262 259 255 252 247 244 238 229 222 218 215 215 219 223 226 229 233
285 282 279 277 275 273 271 269 267 266 264 262 260 258 257 257 258 259 259 259 258 257 258 259 260 259 256 253 251 248 243 237 230 223 216 212 210 210 212 216 220 225 231
297 294 292 288 283 277 271 265 261 257 253 250 248 245 244 244 246 247 249 249 249 249 250 251 252 252 249 247 244 241 236 229 223 217 211 207 203 203 205 210 217 227 236
292 291 290 290 287 282 276 269 260 252 245 238 233 229 227 229 233 237 239 240 241 242 244 245 246 246 242 239 235 230 226 222 217 210 203 199 198 199 202 208 217 226 236
289 285 282 281 281 281 278 270 263 254 244 234 226 218 214 216 222 228 230 231 233 236 239 241 243 240 236 231 227 223 221 217 209 200 196 195 197 200 205 210 214 222 235
287 282 277 273 271 272 273 270 263 256 247 236 226 216 210 209 214 221 223 225 227 229 233 236 236 234 229 225 220 217 216 209 202 195 195 196 199 204 208 211 216 225 236
288 280 272 266 263 262 262 263 260 253 245 233 223 215 210 207 207 214 218 220 221 222 225 227 227 226 223 220 215 211 207 200 194 192 194 198 204 209 213 218 225 233 240
289 280 268 259 254 251 251 252 251 245 238 225 219 216 215 213 207 207 211 212 211 212 217 218 218 216 214 206 201 198 194 189 188 192 197 203 209 215 220 226 234 240 246
289 279 265 254 246 242 241 241 241 237 231 224 220 218 218 217 211 205 203 200 198 204 208 208 207 204 198 191 186 185 186 188 193 198 203 208 213 218 225 232 240 246 249
290 277 260 246 238 234 233 234 235 232 227 223 220 218 217 218 213 205 198 193 195 199 200 198 196 194 190 186 186 188 192 196 200 203 206 210 216 223 231 239 245 248 251
288 273 253 236 227 226 226 228 230 228 224 221 218 215 214 214 211 204 196 193 194 194 193 191 190 189 188 189 191 194 197 200 203 205 209 215 222 230 237 243 247 249 252
286 261 233 217 213 214 217 222 225 225 222 219 215 211 208 207 205 200 194 191 191 189 187 186 186 186 187 188 191 194 199 202 205 209 214 221 229 236 242 247 251 253 256
279 216 195 193 197 201 207 213 217 217 214 209 203 197 195 197 195 192 189 187 186 184 183 182 183 183 184 186 190 196 202 206 210 214 220 227 234 241 247 252 256 259 263
131 157 166 173 180 186 195 201 201 198 190 187 184 182 184 185 185 183 183 183 182 181 181 181 181 183 185 189 195 201 206 211 215 220 226 232 240 246 253 258 262 264 268
117 136 147 155 161 166 167 164 162 161 165 169 169 170 172 174 173 172 176 178 178 179 180 182 183 186 190 194 198 203 208 214 220 227 233 240 247 254 260 264 267 269 272
113 123 129 131 132 131 130 132 136 142 147 152 157 161 163 163 164 168 172 173 175 177 179 181 184 187 189 192 196 202 208 216 224 233 241 248 255 262 267 269 272 274 276
104 108 110 111 113 115 119 124 130 135 140 145 149 153 155 158 162 165 168 170 171 173 175 177 179 182 186 191 196 204 211 220 229 237 245 253 261 266 269 272 274 277 281
100 103 106 111 115 117 118 122 128 133 137 141 145 149 153 157 160 161 163 166 168 171 173 176 181 186 192 197 204 211 218 225 233 240 248 256 262 267 271 275 279 282 284
102 106 110 113 115 118 122 126 130 134 137 141 145 149 152 155 158 160 162 166 170 174 180 187 194 200 206 213 219 223 226 231 237 244 252 259 265 270 275 279 282 284 284
Height
5771 5769 5768 5767 5766 5765 5763 5762 5760 5759 5757 5756 5755 5753 5751 5750 5747 5744 5741 5738 5734 5729 5725 5722 5720 5719 5719 5720 5722 5724 5726 5728 5730 5732 5733 5735 5736 5737 5739 5741 5743 5745 5747
5756 5754 5752 5750 5750 5749 5749 5748 5747 5746 5745 5745 5744 5743 5742 5740 5739 5737 5734 5731 5727 5723 5719 5716 5713 5711 5710 5711 5713 5715 5717 5719 5721 5723 5724 5726 5728 5730 5732 5734 5737 5739 5741
5738 5735 5733 5732 5731 5731 5732 5732 5732 5732 5732 5732 5731 5731 5731 5731 5730 5728 5726 5724 5721 5717 5713 5709 5706 5704 5703 5703 5704 5706 5708 5710 5712 5714 5716 5719 5721 5723 5726 5729 5731 5733 5734
5717 5715 5713 5712 5711 5711 5712 5714 5715 5716 5717 5718 5719 5719 5719 5720 5719 5719 5718 5716 5714 5711 5707 5703 5700 5697 5696 5697 5698 5700 5701 5703 5705 5707 5710 5712 5714 5717 5720 5723 5725 5727 5728
5696 5693 5691 5690 5690 5690 5691 5693 5696 5698 5701 5703 5704 5706 5707 5708 5709 5709 5708 5707 5706 5704 5701 5697 5694 5692 5691 5691 5692 5694 5695 5697 5699 5701 5704 5707 5709 5712 5715 5718 5720 5721 5723
5673 5670 5666 5665 5665 5666 5668 5671 5674 5678 5682 5686 5689 5692 5694 5696 5697 5698 5698 5698 5697 5696 5694 5691 5689 5687 5686 5687 5687 5688 5690 5692 5693 5695 5698 5701 5704 5706 5710 5713 5715 5718 5719
5647 5645 5642 5641 5641 5642 5644 5647 5651 5655 5661 5667 5672 5676 5679 5682 5684 5686 5687 5688 5688 5688 5687 5685 5683 5682 5682 5682 5683 5684 5685 5687 5689 5691 5692 5695 5698 5701 5705 5708 5711 5714 5716
5618 5616 5614 5613 5614 5615 5618 5620 5625 5631 5638 5646 5652 5658 5663 5667 5670 5673 5675 5677 5678 5679 5679 5678 5677 5677 5677 5678 5679 5680 5681 5682 5684 5685 5687 5690 5694 5698 5702 5705 5707 5710 5712
5592 5589 5587 5586 5586 5588 5590 5594 5598 5605 5613 5621 5631 5639 5645 5651 5655 5659 5663 5665 5667 5669 5671 5671 5670 5671 5672 5673 5674 5675 5676 5678 5679 5681 5683 5686 5690 5694 5698 5701 5704 5706 5708
5578 5574 5571 5568 5567 5566 5567 5569 5573 5578 5586 5596 5607 5617 5627 5634 5640 5645 5650 5653 5657 5659 5661 5662 5663 5664 5666 5667 5669 5670 5672 5674 5676 5678 5681 5684 5688 5691 5695 5698 5700 5702 5704
5566 5562 5560 5557 5555 5553 5553 5553 5554 5557 5563 5572 5583 5596 5608 5617 5624 5630 5636 5641 5646 5649 5651 5653 5655 5657 5659 5661 5663 5665 5668 5670 5672 5675 5678 5682 5685 5689 5692 5694 5697 5699 5701
5550 5547 5546 5545 5544 5543 5542 5542 5541 5542 5546 5553 5563 5576 5589 5600 5608 5615 5623 5629 5635 5639 5642 5645 5647 5650 5652 5655 5657 5660 5663 5666 5669 5672 5675 5679 5683 5686 5689 5691 5693 5695 5697
5531 5529 5529 5530 5531 5531 5532 5531 5532 5532 5534 5539 5547 5558 5570 5583 5593 5601 5609 5617 5623 5629 5633 5637 5640 5643 5646 5649 5652 5655 5658 5662 5665 5669 5673 5677 5680 5683 5686 5688 5691 5692 5694
5511 5509 5509 5512 5515 5518 5521 5522 5523 5525 5527 5531 5537 5546 5556 5566 5577 5588 5597 5606 5613 5619 5625 5629 5633 5637 5640 5643 5646 5650 5654 5658 5662 5667 5671 5674 5677 5680 5683 5685 5688 5689 5691
5490 5487 5489 5493 5498 5504 5509 5512 5515 5518 5521 5525 5531 5538 5546 5556 5568 5578 5588 5597 5604 5611 5617 5622 5627 5631 5635 5639 5642 5646 5651 5656 5660 5665 5668 5671 5674 5677 5680 5682 5684 5686 5687
5470 5468 5469 5474 5481 5488 5496 5502 5506 5511 5515 5520 5526 5533 5542 5551 5561 5572 5581 5589 5596 5604 5610 5616 5622 5627 5632 5636 5640 5645 5650 5654 5658 5662 5665 5668 5671 5674 5677 5679 5680 5681 5682
5453 5451 5453 5458 5466 5475 5483 5491 5497 5502 5507 5514 5520 5528 5537 5546 5556 5566 5576 5584 5591 5598 5605 5612 5618 5624 5629 5634 5639 5644 5648 5652 5656 5659 5663 5666 5668 5671 5673 5675 5676 5677 5678
5440 5439 5441 5446 5455 5464 5473 5480 5487 5493 5499 5506 5514 5522 5531 5541 5551 5561 5571 5579 5586 5593 5601 5609 5616 5622 5627 5632 5637 5642 5646 5650 5653 5656 5659 5662 5665 5667 5669 5670 5672 5672 5673
5430 5430 5434 5440 5448 5457 5465 5472 5478 5484 5490 5496 5505 5515 5526 5536 5547 5557 5567 5577 5585 5592 5599 5607 5614 5619 5625 5630 5635 5639 5643 5647 5650 5653 5656 5659 5661 5663 5665 5666 5667 5667 5668
5425 5427 5431 5438 5445 5452 5459 5465 5471 5476 5481 5488 5497 5508 5521 5532 5544 5555 5566 5575 5583 5590 5597 5605 5611 5617 5622 5628 5632 5637 5641 5644 5647 5650 5653 5655 5657 5659 5660 5661 5662 5662 5662
5426 5429 5433 5439 5445 5451 5457 5461 5466 5471 5477 5484 5494 5506 5519 5532 5545 5556 5567 5576 5583 5591 5598 5604 5610 5615 5620 5625 5630 5634 5638 5641 5644 5647 5649 5651 5653 5655 5656 5656 5656 5656 5655
5431 5433 5437 5442 5447 5452 5457 5461 5465 5471 5477 5486 5496 5509 5522 5535 5547 5558 5568 5577 5585 5592 5598 5603 5609 5614 5619 5623 5627 5631 5634 5637 5640 5642 5645 5647 5648 5649 5650 5650 5649 5649 5648
5438 5441 5445 5449 5453 5457 5461 5466 5471 5476 5484 5494 5506 5518 5529 5541 5551 5561 5570 5578 5586 5593 5599 5604 5609 5614 5618 5622 5625 5628 5631 5634 5636 5638 5640 5642 5642 5643 5643 5643 5642 5642 5641
5449 5451 5455 5458 5462 5465 5470 5475 5481 5488 5497 5507 5518 5528 5538 5547 5556 5565 5573 5580 5587 5594 5599 5603 5608 5613 5617 5620 5623 5625 5627 5630 5632 5634 5635 5636 5637 5637 5637 5636 5636 5635 5634
5461 5464 5467 5470 5474 5479 5484 5489 5496 5503 5512 5520 5529 5537 5545 5554 5561 5569 5576 5583 5589 5594 5599 5603 5607 5611 5615 5617 5620 5622 5624 5626 5627 5629 5630 5631 5631 5631 5631 5630 5630 5629 5627
5476 5478 5481 5485 5489 5494 5499 5504 5511 5518 5525 5532 5539 5546 5553 5560 5567 5574 5580 5586 5591 5595 5599 5603 5606 5609 5612 5614 5616 5618 5620 5621 5623 5624 5625 5625 5626 5626 5625 5625 5624 5622 5621